Location: Baili�vre
(50.0696°N, 4.2409°E)
Time: 05:27:06
(UTC+00:00)

Cosmos 1908 Rocket - Pass Details

Date: 08 August 2020
Orbit: 606 x 632 km, 82.5° (Epoch: 23 September)

Event Time Altitude Azimuth Distance (km) Brightness Sun altitude
Exits shadow 23:18:32 54° 86° (E) 755 3.9 -23.8°
Drops below altitude 10° 23:22:40 10° 18° (NNE) 1,985 7.0 -23.9°
Sets 23:24:55 0° 14° (NNE) 2,892 8.2 -23.9°
